www.pogodaiklimat.ru

Погода и климат >> Архив погоды >> Россия >> Крым >> Феодосия


АРХИВ ПОГОДЫ в Феодосии

Время (UTC), дата Ветер
(напр.,м/с)
 
Видим.   Явления Облачность Т
(С)
Тd
(С)
f
(%)
Тe
(С)
Тes
(С)
Комфортность P
(гПа)
Po
(гПа)
Тmin
(С)
Tmax
(С)
R
(мм)
R24
(мм)
S
(см)
15 23.04 З 4 10 км слабый ливневой дождь 10 баллов +2.3 +1.3 93 -3 -3 очень
холодно
1008.5 1005.3 14
18 23.04 З 2
{10}
10 км слабый ливневой дождь 10 баллов +5.2 +4.0 92 +2 +2 холодно 1009.9 1006.7 +7.2 18
21 23.04 З 1 10 км в посл. час ливневой дождь 10 баллов +7.5 +5.1 85 +7 +7 по сезону 1011.2 1008.0
00 24.04 ЮЗ 1 10 км 9 баллов +7.9 +3.9 76 +7 +7 по сезону 1011.2 1008.0
03 24.04 СЗ 1 10 км слабый ливневой дождь 10 баллов +7.8 +4.9 82 +7 +7 по сезону 1011.2 1008.0 +2.3 4
06 24.04 З 4 10 км 10 баллов +3.6 +2.4 92 -1 -1 очень
холодно
1013.9 1010.7 +3.6 7
09 24.04 З 4 10 км слабый ливневой дождь 7 баллов +10.7 +4.6 66 +8 +12 прохладно 1016.5 1013.3
12 24.04 З 4 10 км слабый ливневой дождь 9 баллов +8.6 +2.4 65 +6 +7 холодно 1017.9 1014.7
15 24.04 З 3
{11}
10 км 6 баллов +8.6 +1.7 62 +6 +7 холодно 1019.2 1016.0 8
18 24.04 З 2
{10}
10 км 4 балла +6.4 +1.1 69 +4 +4 холодно 1021.9 1018.7 +12.0 0.8
21 24.04 З 2 10 км слабый ливневой дождь 9 баллов +6.7 +2.0 72 +5 +5 прохладно 1023.2 1020.0
00 25.04 З 2 10 км ясно +6.9 +1.6 69 +5 +5 прохладно 1024.5 1021.3
03 25.04 ЮЗ 2 10 км 2 балла +6.4 +1.1 69 +4 +4 холодно 1025.9 1022.7 +5.5 0.0
06 25.04 ЮЗ 1 10 км 6 баллов +11.1 +2.7 56 +11 +15 по сезону 1029.9 1026.7 +5.5 0.0
09 25.04 Ю 3 20 км 7 баллов +12.3 +1.6 48 +11 +15 по сезону 1029.9 1026.7
12 25.04 Ю 4 20 км 7 баллов +11.3 +3.1 57 +9 +12 прохладно 1029.9 1026.7
15 25.04 Ю 4
{10}
20 км 4 балла +10.7 +1.2 52 +9 +9 по сезону 1029.9 1026.7 0.0
18 25.04 Ю 5
{10}
20 км ясно +8.2 +4.4 77 +5 +5 прохладно 1029.9 1026.7 +13.4 0.0
21 25.04 ЮВ 2 10 км ясно +7.6 +4.9 83 +6 +6 прохладно 1029.9 1026.7
00 26.04 ЮВ 2 10 км ясно +8.0 +4.4 78 +6 +6 по сезону 1028.5 1025.3
03 26.04 ЮВ 2 10 км 6 баллов +7.6 +4.4 80 +6 +6 прохладно 1028.5 1025.3 +7.6
06 26.04 Ю 4 10 км 6 баллов +10.4 +4.1 65 +8 +10 прохладно 1028.5 1025.3 +7.6
09 26.04 ЮВ 4 10 км 5 баллов +11.0 +5.3 68 +9 +14 прохладно 1028.5 1025.3
12 26.04 Ю 3 ясно +10.8 66 +24 +24 комфорт 1027.2 1024.0
15 26.04 ЮВ 3 10 км ясно +9.7 +5.1 73 +8 +9 прохладно 1025.9 1022.7
18 26.04 Ю 1 10 км ясно +7.8 +0.8 61 +7 +7 прохладно 1025.9 1022.7 +12.1
21 26.04 ЮВ 2 10 км ясно +7.4 -1.6 53 +6 +6 прохладно 1024.5 1021.3
00 27.04 В 1 10 км ясно +7.2 -4.5 43 +7 +7 по сезону 1024.5 1021.3
03 27.04 С 1 20 км ясно +5.3 +2.1 80 +4 +4 холодно 1023.2 1020.0 +5.3
06 27.04 СВ 2 10 км ясно +11.7 +6.0 68 +11 +18 по сезону 1024.5 1021.3 +5.2
09 27.04 В 2 10 км ясно +16.6 +5.5 48 +17 +33 опасность
простуды
1024.4 1021.3
12 27.04 Ю 3 10 км ясно +19.6 -2.1 23 +20 +30 тепло 1023.1 1020.0
15 27.04 ЮВ 3 10 км ясно +17.8 +0.4 31 +18 +20 тепло 1021.8 1018.7
18 27.04 ЮЗ 2 10 км ясно +14.8 -0.5 35 +15 +15 тепло 1021.8 1018.7 +20.2
21 27.04 штиль 0 10 км ясно +9.3 +6.4 82 +9 +9 по сезону 1021.9 1018.7
00 28.04 ЮЗ 1 10 км ясно +7.5 +3.0 73 +7 +7 по сезону 1020.5 1017.3
03 28.04 ЮЗ 2 10 км ясно +7.6 +1.9 67 +6 +6 прохладно 1020.5 1017.3 +6.5
06 28.04 В 1 10 км ясно +18.0 +4.5 41 +19 +28 тепло 1021.8 1018.7 +6.5
09 28.04 Ю 5
{11}
20 км ясно +20.0 +2.8 32 +20 +29 тепло 1021.8 1018.7
12 28.04 ЮВ 4
{11}
20 км ясно +18.2 +5.4 43 +18 +26 тепло 1020.4 1017.3
15 28.04 ЮЗ 4 20 км ясно +17.8 +3.7 39 +18 +19 тепло 1020.4 1017.3
18 28.04 СЗ 1 10 км ясно +15.1 +5.6 53 +16 +16 тепло 1019.1 1016.0 +20.7
21 28.04 штиль 0 10 км ясно +10.2 +7.4 83 +10 +10 по сезону 1019.2 1016.0
00 29.04 З 1 10 км ясно +10.3 +4.2 66 +10 +10 по сезону 1019.2 1016.0
03 29.04 З 1 10 км ясно +8.9 +2.9 66 +9 +9 по сезону 1017.9 1014.7 +8.7
06 29.04 З 1 10 км ясно +18.0 +7.1 49 +19 +28 тепло 1019.1 1016.0 +8.7
09 29.04 В 1 20 км ясно +20.6 +12.0 58 +24 +43 комфорт 1019.1 1016.0
12 29.04 ЮВ 2 20 км ясно +22.4 +8.8 42 +24 +36 комфорт 1017.7 1014.7
15 29.04 ЮВ 1 20 км ясно +19.2 +3.8 36 +21 +23 комфорт 1017.8 1014.7
18 29.04 З 2 10 км ясно +13.4 +8.7 73 +13 +13 тепло 1017.8 1014.7 +23.1
21 29.04 З 2 10 км ясно +11.9 +4.1 59 +11 +11 по сезону 1016.5 1013.3
00 30.04 З 2 10 км ясно +13.0 +7.2 68 +12 +12 тепло 1015.1 1012.0
03 30.04 З 2 10 км ясно +13.1 +9.0 76 +12 +13 тепло 1016.4 1013.3 +11.9
06 30.04 СВ 1 10 км ясно +18.7 +12.0 65 +20 +29 тепло 1016.4 1013.3 +11.9
09 30.04 В 3 10 км ясно +19.5 +10.2 55 +21 +35 комфорт 1016.4 1013.3

 

Местоположение метеостанции Феодосия (Крым, Россия): широта 45.03 долгота 35.38 высота над уровнем моря 26 м.

В архиве по умолчанию представлена погода в Феодосии за последнюю неделю. Архивные данные за месяц целиком и за предыдущие месяцы, начиная с января 2011 года, Вы можете получить, выбрав интересующий диапазон дат из раскрывающегося списка и нажав кнопку "Ввод!".

Внимание! Время в таблицах - всемирное. Для получения местного времени необходимо прибавить поправку, которая в Феодосии равна 3 ч.

Смотрите также архив погоды в соседних городах и на ближайших метеорологических станциях:

Погода на Мысовом (Крым, Россия) (58 км)
Погода в Белогорске (Крым, Россия) (61 км)
Погода в Нижнегорском (Крым, Россия) (69 км)
Погода в Стрелковом (Херсонская область, Украина) (87 км)
Погода в Алуште (Крым, Россия) (87 км)
Погода в Керчи (Крым, Россия) (91 км)
Погода в Никитском саду (Крым, Россия) (106 км)
Погода в Тамани (Краснодарский край, Россия) (107 км)
Погода в Джанкое (Крым, Россия) (108 км)
Погода в Клепинино (Крым, Россия) (109 км)

Пояснения к столбцам:

Ветер - указаны скорость ветра в м/с - средняя за 10 мин, порывы в срок и между сроками (в фигурных скобках) и направление, откуда дует ветер: С - северный, СВ - северо-восточный, В - восточный, ЮВ - юго-восточный, Ю - южный, ЮЗ - юго-западный, З - западный, СЗ - северо-западный.
Видимость - горизонтальная дальность видимости в метрах или километрах. При видимости от 1 до 10 км при отсутствии осадков обычно наблюдается дымка, при ухудшении видимости до 1 км и менее - туман. В сухую погоду видимость может ухудшаться дымом, пылью или мглою.
Явления - указаны атмосферные явления, наблюдавшиеся в срок или в последний час перед сроком; фигурными скобками обозначены явления, наблюдавшиеся между сроками (за 1-3 часа до срока); квадратными скобками обозначены град или гололедные отложения с указанием их диаметра в мм.
Облачность - указаны через наклонную черту общая и нижняя облачность в баллах и высота нижней границы облаков в метрах; квадратными скобками обозначены формы облаков: Ci - перистые, Cs - перисто-слоистые, Cc - перисто-кучевые, Ac - высококучевые, As - высокослоистые, Sc - слоисто-кучевые, Ns - слоисто-дождевые, Cu - кучевые, Cb - кучево-дождевые. Подробнее классификацию облаков см. в Атласе облаков (PDF).
T - Температура воздуха - температура, измеренная на высоте 2 м над землей.
Td - Температура точки росы - температура, при понижении до которой содержащийся в воздухе водяной пар достигнет насыщения.
f - Относительная влажность воздуха - влажноcть воздуха, измеренная на высоте 2 м над землей.
Te - Эффективная температура - температура, которую ощущает одетый по сезону человек в тени. Характеристика душности погоды. При расчете учитывается влияние влажности воздуха и скорости ветра на теплоощущения человека.
Tes - Эффективная температура на солнце - температура, которую ощущает человек, с поправкой на солнечный нагрев. Характеристика знойности погоды. Зависит от высоты солнца над горизонтом, облачности и скорости ветра. Ночью, в пасмурную погоду, а также при ветре 12 м/с и более поправка равна нулю.
P - Атмосферное давление - приведенное к уровню моря атмосферное давление.
Po - Атмосферное давление - измеренное на уровне метеостанции атмосферное давление.
Tmin - Минимальная температура - минимум температуры воздуха на высоте 2 м над землей.
Tmax - Максимальная температура - максимум температуры воздуха на высоте 2 м над землей.
R - Количество осадков - Количество выпавших осадков за период времени, мм. При наведении курсора мыши на число - период времени, за который выпало указанное количество осадков.
R24 - Количество осадков - Количество выпавших осадков за 24 часа, мм.
S - Снежный покров - Высота снежного покрова, см. При наведении курсора мыши на число - состояние снежного покрова и степень покрытия местности в баллах.